STARLINK-34723, 64842

Orbit data source: Space-Track

STARLINK-34723, 64842 is a payload satellite owned by SpaceX/Seattle (US) in SSO that was launched on Sat, 19 Jul 2025 UTC via an FALCON 9 launch vehicle from the Air Force Western Test Range (AFWTR). Payload-class satellites include a variety of spacecraft equipped with specific instruments for various scientific and technological missions. These include communications satellites like Starlink; space stations such as the ISS; scientific satellites like the Hubble; Earth observation satellites from companies like Planet Labs, Umbra, and HawkEye 360; GPS; miniature CubeSats for education and research; and military/defense satellites.

Loading next visibility...
Identifier
64842, 2025-152A
Orbit
SSO
Country
Flag of USUS
Related business
Manufacturer
SpaceX/Seattle
Mission
Operational Commercial Communications
Bus & Motor
STARLINK V2MO, Unknown motor
Mass
575 kg wet, ~530 kg dry
Launch date (UTC)
2025-07-19 (9 months ago)
Launch vehicle
FALCON 9
Launch site
Air Force Western Test Range (AFWTR)
Object type
Payload
Rocket body
Debris
Shape & HBR
Box + 2 Pan, 17.7 m
Radar Cross Section
36.964 m², Large (>1 m²)

Expand to show TLE details & history
Last TLE update: 5 hours ago

TLE from 5 hours ago
0 STARLINK-34723
1 64842U 25152A   26095.54176732  .00005348  00000-0  37458-3 0  9996
2 64842  97.6025 311.9058 0001993  83.7271 276.4182 15.05647533 39452
Epoch: 2026-04-05T13:00Z
TLE epoch observation values (Epoch: 2026-04-05T13:00:08.696Z)
Latitude
-0.0001°
Longitude
-76.97612°
Altitude
552.43 km
Speed
7.586 km/s
True Right ascension
20h 47m 37s
True Declination
0° 00' 00"
Sunlit
Object was in daylight at epoch
Visualization orbit readout
Latitude
Unknown
Longitude
Unknown
Altitude
Unknown
Speed
Unknown
Apparent Right ascension
Unknown
Apparent Declination
Unknown
Sunlit
N/A
Visualization observer readout
Local Sidereal Time
23:29:31
Azimuth
Unknown
Elevation
Unknown
Doppler factor
Unknown
Orbital elements
Apogee altitude
547.892 km
Perigee altitude
545.132 km
Semi-major axis
6,924.649 km
Eccentricity
0.0002
Inclination
97.6025°
RAAN
311.9058°
Arg. of periapsis
83.7271°
True anomaly
276.3955°
Mean anomaly
276.4182°
Eccentric anomaly
276.40685°
Mean motion
3.76657 °/min
Orbital period
95.58 mins
BSTAR
0.00037458
Loading maneuver chart data...
Computing Atmospheric mass density...
Loading historical data...
Loading historical data...
Loading historical data...
Loading historical data...
Loading historical data...
Loading historical data...
Loading historical data...

Documentation

Showing up to 5 results
|